This is the latest recevied weather packets stored in our database for station/object DO5DHA-11. If no packets are shown the sender has not sent any weather packets the latest 10 day(s).
| Time | Temp. | Humidity | Pressure | Rain* | Wind** | Luminosity | Snow |
|---|---|---|---|---|---|---|---|
| 1777799644 | 24.44° C | 36% | 1013.2 hPa | 0 mm | - | - | - |
| 1777799344 | 23.89° C | 37% | 1013.2 hPa | 0 mm | - | - | - |
| 1777799044 | 23.89° C | 37% | 1013.5 hPa | 0 mm | - | - | - |
| 1777798744 | 23.89° C | 37% | 1013.5 hPa | 0 mm | - | - | - |
| 1777798444 | 23.33° C | 38% | 1013.5 hPa | 0 mm | - | - | - |
| 1777798144 | 23.33° C | 38% | 1013.5 hPa | 0 mm | - | - | - |
| 1777797844 | 22.78° C | 39% | 1013.5 hPa | 0 mm | - | - | - |
| 1777797544 | 22.78° C | 39% | 1013.5 hPa | 0 mm | - | - | - |
| 1777797244 | 22.22° C | 40% | 1013.5 hPa | 0 mm | - | - | - |
| 1777796944 | 22.22° C | 40% | 1013.7 hPa | 0 mm | - | - | - |
| 1777796644 | 21.11° C | 41% | 1013.7 hPa | 0 mm | - | - | - |
| 1777796344 | 21.11° C | 41% | 1013.7 hPa | 0 mm | - | - | - |
| 1777796044 | 20.56° C | 42% | 1013.9 hPa | 0 mm | - | - | - |
| 1777795744 | 20° C | 41% | 1013.9 hPa | 0 mm | - | - | - |
| 1777795444 | 20° C | 42% | 1013.9 hPa | 0 mm | - | - | - |
| 1777795144 | 20° C | 41% | 1014 hPa | 0 mm | - | - | - |
| 1777794844 | 20° C | 41% | 1014 hPa | 0 mm | - | - | - |
| 1777794544 | 20° C | 41% | 1014 hPa | 0 mm | - | - | - |
| 1777794244 | 20° C | 41% | 1014 hPa | 0 mm | - | - | - |
| 1777793944 | 20° C | 42% | 1014.2 hPa | 0 mm | - | - | - |
| 1777793644 | 19.44° C | 43% | 1014 hPa | 0 mm | - | - | - |
| 1777793344 | 18.89° C | 46% | 1014 hPa | 0 mm | - | - | - |
| 1777793044 | 18.89° C | 47% | 1014 hPa | 0 mm | - | - | - |
| 1777792744 | 18.33° C | 47% | 1014 hPa | 0 mm | - | - | - |
| 1777792444 | 17.78° C | 49% | 1014 hPa | 0 mm | - | - | - |
* Rain latest hour (hover to see other rain measurements)
** Current wind speed in m/s (hover to see current wind gust speed)